Regional Weather Roundup
Issued by NWS

Home | Current Version | Previous Version | Text Only | Print | Product List | Glossary Off
Versions: 1 2 3 4 5 6 7 8 9 10 11 12 13 14 15 16 17 18 19 20 21 22 23 24 25 26 27 28 29 30 31 32 33 34 35 36 37 38 39 40 41 42 43 44 45 46 47 48 49 50

000
ASUS43 KMKX 301400
RWRWI

WISCONSIN REGIONAL WEATHER ROUNDUP
NATIONAL WEATHER SERVICE MILWAUKEE/SULLIVAN WI
900 AM CDT THU JUL 30 2015

NOTE: "FAIR" INDICATES FEW OR NO CLOUDS BELOW 12,000 FEET WITH NO
SIGNIFICANT WEATHER AND/OR OBSTRUCTIONS TO VISIBILITY.

WIZ001-002-006>008-014>016-023>028-301500-
NORTHWEST WISCONSIN

CITY           SKY/WX    TMP DP  RH WIND       PRES   REMARKS
SUPERIOR ARPT  SUNNY     70  60  72 W8        29.95R
ASHLAND        SUNNY     72  60  66 W10       29.94R
HAYWARD        SUNNY     71  58  63 VRB5      29.99S
SIREN          SUNNY     68  57  67 W7        30.00S
CUMBERLAND     SUNNY     68  55  64 W8        30.01S
RICE LAKE      SUNNY     67  58  71 W9        30.02S
CHETEK         SUNNY     69  59  69 W3        30.01S
LADYSMITH      SUNNY     69  59  69 W8        30.01R
EAU CLAIRE     NOT AVBL
MENOMONIE      SUNNY     71  56  60 W8        30.02S
NEW RICHMOND   SUNNY     71  55  58 W10       30.03S
OSCEOLA        MOSUNNY   70  58  65 W8        30.04S
$$

WIZ003>005-009-010-017-018-301500-
NORTH CENTRAL WISCONSIN

CITY           SKY/WX    TMP DP  RH WIND       PRES   REMARKS
MANITOWISH WTR SUNNY     68  57  68 W13G20    29.94S
ARBOR VITAE    SUNNY     69  58  67 NW12G17   29.95R
WOODRUFF       SUNNY     69  58  67 NW12G17   29.95R
RHINELANDER    SUNNY     70  56  61 W14       29.97R
EAGLE RIVER    SUNNY     69  53  57 NW17G24   29.93S
LAND O LAKES   SUNNY     69  54  59 W14G24    29.94R
PHILLIPS       SUNNY     67  58  74 W3        29.98R
TOMAHAWK       SUNNY     67  56  67 W10       29.98R
MEDFORD        SUNNY     67  58  72 W10       30.00S
MERRILL        NOT AVBL
$$

WIZ029-030-035-036-043>047-301500-
CENTRAL WISCONSIN

CITY           SKY/WX    TMP DP  RH WIND       PRES   REMARKS
WAUSAU         SUNNY     72  57  59 W16       29.97S
MOSINEE        NOT AVBL
MARSHFIELD     SUNNY     72  57  59 W9        30.01R
STEVENS POINT  SUNNY     68  56  64 W7        30.00S
WAUPACA        SUNNY     73  57  55 W8        29.99R
WAUTOMA        NOT AVBL
WISC RAPIDS    SUNNY     73  55  53 W12       30.02R
CAMP DOUGLAS   NOT AVBL
$$

WIZ011>013-019>022-031-037>040-048>050-301500-
NORTHEAST WISCONSIN

CITY           SKY/WX    TMP DP  RH WIND       PRES   REMARKS
ANTIGO         SUNNY     68  56  65 W15       29.97S
SHAWANO        SUNNY     73  58  59 W8        29.96S
OCONTO         SUNNY     72  58  60 W16       29.92S
STURGEON BAY   SUNNY     72  55  56 W14G21    29.94S
GREEN BAY      SUNNY     73  59  61 W12       29.96R
MANITOWOC      NOT AVBL
APPLETON       SUNNY     72  55  56 W13       29.99R
CLINTONVILLE   SUNNY     70  55  60 W8        29.97R
OSHKOSH        SUNNY     74  57  55 W10G18    29.99R
$$

WIZ032>034-041-042-053>061-301500-
SOUTHWEST WISCONSIN

CITY           SKY/WX    TMP DP  RH WIND       PRES   REMARKS
LA CROSSE      SUNNY     76  56  49 W7        30.05R
SPARTA         SUNNY     71  55  58 W6        30.05R
VIROQUA        SUNNY     70  58  65 W6        30.07S
BOSCOBEL       SUNNY     74  61  63 SW6       30.07R
PRAIRIE DU CHI SUNNY     72  56  58 CALM      30.07S
PLATTEVILLE    SUNNY     69  63  79 W5        30.09S
$$

WIZ056-057-062-063-064-067-068-301500-
SOUTH CENTRAL WISCONSIN

CITY           SKY/WX    TMP DP  RH WIND       PRES   REMARKS
REEDSBURG      SUNNY     73  58  59 W8        30.04S
BARABOO/DELLS  SUNNY     73  54  52 W9        30.04S
LONE ROCK      NOT AVBL
MINERAL POINT  SUNNY     72  61  68 W6        30.08S
MADISON        SUNNY     73  58  59 VRB6      30.04R
MIDDLETON      SUNNY     73  58  57 W9        30.06R
WATERTOWN      SUNNY     71  60  68 W7        30.03R
MONROE         SUNNY     70  59  68 W10       30.08R
JANESVILLE     SUNNY     73  59  60 W7        30.06R
$$

WIZ051-052-058>065-066-070>072-301500-
SOUTHEAST WISCONSIN

CITY           SKY/WX    TMP DP  RH WIND       PRES   REMARKS
MILWAUKEE      SUNNY     77  54  44 NW10      30.02R
WAUKESHA       SUNNY     72  55  56 W14       30.04R
MILWAUKEE/TIMM SUNNY     73  54  49 W12       30.02S
RACINE         SUNNY     75  58  55 W8        30.04R
BURLINGTON     SUNNY     72  56  57 W10       30.04R
KENOSHA        SUNNY     74  60  61 W10       30.05R
FOND DU LAC    SUNNY     74  58  57 W9        30.00S
SHEBOYGAN      SUNNY     74  59  59 W14       29.98S
WEST BEND      SUNNY     72  54  53 W8        30.01S
JUNEAU         SUNNY     69  60  72 W9        30.04R
$$

LSZ147-162-301500-
LAKE SUPERIOR

STATION/POSITION TIME  TEMP    WIND        PRES    WAVE
                       AIR SEA DIR/SP/G            HT/PER
                 (UTC) (F)     (DEG/KT/KT) (MB)    (FT/S)
W MID LAKE BUOY  1250   59 53  260/ 17/ 21 1010.2R   4/ 5
DEVILS ISLAND    1300   62     250/ 21/ 24 1012.1R
PORT WING        1300   67     250/ 12/ 18 1013.5R
SAXON HARBOR     1300   70                 1012.9R
$$

LMZ867-665-643>646-301500-
LAKE MICHIGAN

STATION/POSITION TIME  TEMP    WIND        PRES    WAVE
                       AIR SEA DIR/SP/G            HT/PER
                 (UTC) (F)     (DEG/KT/KT) (MB)    (FT/S)
CHAMBERS ISLAND  1300   69     220/  6/ 12 1012.2R
S GREEN BAY BUOY 1200   63 64  240/ 12/ 14 1014.5R
N MID LAKE BUOY  1250   70 69  260/ 19/ 23 1010.2R   3/ 4
NORTHPORT PIER   1300   71     270/  6/ 15 1011.5S
SISTER BAY       1314   74     290/ 19/ 21   N/A
ALGOMA LAKESHORE 1312          310/  7/ 12   N/A
KEWAUNEE LAKESHO 1300   71     280/  9/ 13 1013.0
SHEBOYGAN LAKESH 1300   71     260/ 11/ 13 1014.9R
PORT WASHINGTON  1340   76     290/  6/ 16 1016.3R
ATWATER BUOY     1300   69     270/ 10/ 12 1017.2R
MILWAUKEE LAKESH 1300   73     290/ 10/ 14   N/A
KENOSHA   LAKESH 1300   72     270/ 11/ 16 1016.3S
$$

TC  - TEMPERATURE IN CELSIUS
VSB - VISIBILITY IN STATUTE MILES
WCI - WIND CHILL INDEX
HX  - HEAT INDEX




USA.gov is the U.S. government's official web portal to all federal, state and local government web resources and services.